,,PA_Meas_PMT16A,,PR_Meas_QMR101_102,,RH_Meas_QMH101,,SR_Meas_QMS101,,TA_Meas_QMH101,,GenWind,,GenWind,
time,status,PA,status,PR,status,RH,status,SR,status,TA,status,DirAvg,status,SpdAvg,
2010-04-28, 00:00:04,VALID,920.286,VALID,0,VALID,97.0156,VALID,0,VALID,20.7365,VALID,142,VALID,1.00664,
2010-04-28, 00:01:04,VALID,920.266,VALID,0,VALID,97.0308,VALID,0.107441,VALID,20.6959,VALID,142,VALID,0.865625,
2010-04-28, 00:02:04,VALID,920.258,VALID,0,VALID,97.0308,VALID,0.107441,VALID,20.7154,VALID,142,VALID,0.653125,
2010-04-28, 00:03:04,VALID,920.239,VALID,0,VALID,97.0537,VALID,0.107441,VALID,20.7365,VALID,142,VALID,0.739844,
2010-04-28, 00:04:04,VALID,920.21,VALID,0,VALID,97.069,VALID,0.107441,VALID,20.756,VALID,142,VALID,0.961719,
2010-04-28, 00:05:04,VALID,920.205,VALID,0,VALID,97.069,VALID,0,VALID,20.756,VALID,142,VALID,0.779297,
2010-04-28, 00:06:04,VALID,920.19,VALID,0,VALID,97.0766,VALID,0,VALID,20.7544,VALID,123,VALID,1.09648,
2010-04-28, 00:07:04,VALID,920.217,VALID,0,VALID,97.0918,VALID,0,VALID,20.7349,VALID,111,VALID,0.947266,
2010-04-28, 00:08:04,VALID,920.194,VALID,0,VALID,97.1071,VALID,0.107441,VALID,20.7544,VALID,111,VALID,0.902734,
2010-04-28, 00:09:04,VALID,920.199,VALID,0,VALID,97.1376,VALID,0.107441,VALID,20.7739,VALID,111,VALID,0.617188,
2010-04-28, 00:10:04,VALID,920.213,VALID,0,VALID,97.1223,VALID,0.107441,VALID,20.7739,VALID,111,VALID,1.02656,
2010-04-28, 00:11:04,VALID,920.202,VALID,0,VALID,97.1452,VALID,0.107441,VALID,20.7528,VALID,111,VALID,0.802344,
2010-04-28, 00:12:04,VALID,920.231,VALID,0,VALID,97.1528,VALID,0.107441,VALID,20.7739,VALID,111,VALID,0.769141,
2010-04-28, 00:13:04,VALID,920.21,VALID,0,VALID,97.1376,VALID,0.107441,VALID,20.7544,VALID,111,VALID,0.652344,
2010-04-28, 00:14:04,VALID,920.177,VALID,0,VALID,97.1376,VALID,0.107441,VALID,20.7739,VALID,111,VALID,0.698047,
2010-04-28, 00:15:04,VALID,920.159,VALID,0,VALID,97.1757,VALID,0,VALID,20.7365,VALID,111,VALID,0.533984,
2010-04-28, 00:16:04,VALID,920.139,VALID,0,VALID,97.1604,VALID,0,VALID,20.7154,VALID,111,VALID,0.428906,
2010-04-28, 00:17:04,VALID,920.116,VALID,0,VALID,97.1681,VALID,0,VALID,20.7154,VALID,111,VALID,0.830859,
2010-04-28, 00:18:04,VALID,920.109,VALID,0,VALID,97.1833,VALID,0,VALID,20.7365,VALID,111,VALID,0.678906,
2010-04-28, 00:19:04,VALID,920.084,VALID,0,VALID,97.1833,VALID,0,VALID,20.7755,VALID,111,VALID,0.856641,
2010-04-28, 00:20:04,VALID,920.115,VALID,0,VALID,97.1757,VALID,0,VALID,20.7755,VALID,111,VALID,0.903906,
2010-04-28, 00:21:04,VALID,920.053,VALID,0,VALID,97.1986,VALID,0,VALID,20.7755,VALID,111,VALID,0.787891,
2010-04-28, 00:22:04,VALID,920.062,VALID,0,VALID,97.1986,VALID,0,VALID,20.795,VALID,111,VALID,0.764844,
2010-04-28, 00:23:04,VALID,920.06,VALID,0,VALID,97.2062,VALID,0,VALID,20.795,VALID,111,VALID,0.9625,
2010-04-28, 00:24:04,VALID,920.043,VALID,0,VALID,97.2138,VALID,0,VALID,20.795,VALID,111,VALID,0.753516,
2010-04-28, 00:25:04,VALID,920.042,VALID,0,VALID,97.229,VALID,0,VALID,20.8145,VALID,111,VALID,0.820313,
2010-04-28, 00:26:04,VALID,920.055,VALID,0,VALID,97.2214,VALID,0,VALID,20.795,VALID,111,VALID,0.667969,
2010-04-28, 00:27:04,VALID,920.023,VALID,0,VALID,97.2214,VALID,0,VALID,20.7755,VALID,131,VALID,0.65,
2010-04-28, 00:28:04,VALID,920.024,VALID,0,VALID,97.2214,VALID,0,VALID,20.7755,VALID,131,VALID,1.19648,
2010-04-28, 00:29:04,VALID,919.99,VALID,0,VALID,97.2214,VALID,0,VALID,20.7966,VALID,131,VALID,0.741406,
2010-04-28, 00:30:04,VALID,919.963,VALID,0,VALID,97.2367,VALID,0.107441,VALID,20.795,VALID,131,VALID,0.805469,
2010-04-28, 00:31:04,VALID,919.949,VALID,0,VALID,97.229,VALID,0.107441,VALID,20.7544,VALID,131,VALID,0.973437,
2010-04-28, 00:32:04,VALID,919.931,VALID,0,VALID,97.2443,VALID,0.107441,VALID,20.7349,VALID,135,VALID,0.942187,
2010-04-28, 00:33:04,VALID,919.898,VALID,0,VALID,97.2443,VALID,0.107441,VALID,20.7528,VALID,190,VALID,0.797266,
2010-04-28, 00:34:04,VALID,919.869,VALID,0,VALID,97.2443,VALID,0.107441,VALID,20.7544,VALID,190,VALID,0.884766,
2010-04-28, 00:35:04,VALID,919.849,VALID,0,VALID,97.2367,VALID,0.107441,VALID,20.7755,VALID,190,VALID,0.999219,
2010-04-28, 00:36:04,VALID,919.832,VALID,0,VALID,97.2519,VALID,0,VALID,20.7755,VALID,190,VALID,0.387891,
2010-04-28, 00:37:04,VALID,919.82,VALID,0,VALID,97.2443,VALID,0,VALID,20.7544,VALID,190,VALID,0.771094,
2010-04-28, 00:38:04,VALID,919.821,VALID,0,VALID,97.2443,VALID,0,VALID,20.7544,VALID,190,VALID,0.916797,
2010-04-28, 00:39:04,VALID,919.809,VALID,0,VALID,97.2672,VALID,0.107441,VALID,20.7349,VALID,190,VALID,0.347656,
2010-04-28, 00:40:04,VALID,919.792,VALID,0,VALID,97.2519,VALID,0.107441,VALID,20.7349,VALID,190,VALID,0.642578,
2010-04-28, 00:41:04,VALID,919.781,VALID,0,VALID,97.2595,VALID,0,VALID,20.7154,VALID,190,VALID,0.857031,
2010-04-28, 00:42:04,VALID,919.776,VALID,0,VALID,97.2595,VALID,0.107441,VALID,20.6959,VALID,190,VALID,0.917578,
2010-04-28, 00:43:04,VALID,919.765,VALID,0,VALID,97.2595,VALID,0.107441,VALID,20.6959,VALID,189,VALID,0.953516,
2010-04-28, 00:44:04,VALID,919.747,VALID,0,VALID,97.2519,VALID,0.107441,VALID,20.6959,VALID,157,VALID,0.976563,
2010-04-28, 00:45:04,VALID,919.727,VALID,0,VALID,97.2672,VALID,0,VALID,20.678,VALID,146,VALID,0.930469,
2010-04-28, 00:46:04,VALID,919.718,VALID,0,VALID,97.2443,VALID,0,VALID,20.6795,VALID,144,VALID,0.541406,
2010-04-28, 00:47:04,VALID,919.735,VALID,0,VALID,97.229,VALID,0,VALID,20.6585,VALID,144,VALID,0.684766,
2010-04-28, 00:48:04,VALID,919.737,VALID,0,VALID,97.2367,VALID,0,VALID,20.6585,VALID,144,VALID,1.0875,
2010-04-28, 00:49:04,VALID,919.728,VALID,0,VALID,97.2214,VALID,0,VALID,20.6585,VALID,144,VALID,0.899219,
2010-04-28, 00:50:04,VALID,919.711,VALID,0,VALID,97.2138,VALID,0,VALID,20.6585,VALID,144,VALID,0.546484,
2010-04-28, 00:51:04,VALID,919.682,VALID,0,VALID,97.2214,VALID,0,VALID,20.678,VALID,144,VALID,0.217187,
2010-04-28, 00:52:04,VALID,919.665,VALID,0,VALID,97.1909,VALID,0,VALID,20.6585,VALID,144,VALID,0.640234,
2010-04-28, 00:53:04,VALID,919.637,VALID,0,VALID,97.2062,VALID,0,VALID,20.699,VALID,143,VALID,0.736328,
2010-04-28, 00:54:04,VALID,919.652,VALID,0,VALID,97.2062,VALID,0,VALID,20.6585,VALID,113,VALID,0.875391,
2010-04-28, 00:55:04,VALID,919.654,VALID,0,VALID,97.1833,VALID,0,VALID,20.6585,VALID,116,VALID,0.969531,
2010-04-28, 00:56:04,VALID,919.641,VALID,0,VALID,97.1681,VALID,0,VALID,20.6585,VALID,138,VALID,1.27695,
2010-04-28, 00:57:04,VALID,919.652,VALID,0,VALID,97.1528,VALID,0,VALID,20.678,VALID,141,VALID,0.628906,
2010-04-28, 00:58:04,VALID,919.62,VALID,0,VALID,97.1299,VALID,0,VALID,20.6795,VALID,141,VALID,0.788281,
2010-04-28, 00:59:04,VALID,919.597,VALID,0,VALID,97.0918,VALID,0,VALID,20.678,VALID,141,VALID,1.08984,
2010-04-28, 01:00:04,VALID,919.598,VALID,0,VALID,97.0842,VALID,0,VALID,20.6975,VALID,141,VALID,0.859766,
2010-04-28, 01:01:04,VALID,919.574,VALID,0,VALID,97.0537,VALID,0,VALID,20.6975,VALID,141,VALID,0.312891,
2010-04-28, 01:02:04,VALID,919.544,VALID,0,VALID,97.0156,VALID,0,VALID,20.678,VALID,141,VALID,0.346094,
2010-04-28, 01:03:04,VALID,919.534,VALID,0,VALID,96.9851,VALID,0,VALID,20.699,VALID,141,VALID,0.424609,
2010-04-28, 01:04:04,VALID,919.498,VALID,0,VALID,96.947,VALID,0,VALID,20.6975,VALID,141,VALID,0.415234,
2010-04-28, 01:05:04,VALID,919.485,VALID,0,VALID,96.9012,VALID,0,VALID,20.678,VALID,141,VALID,0.149609,
2010-04-28, 01:06:04,VALID,919.489,VALID,0,VALID,96.825,VALID,0,VALID,20.678,VALID,141,VALID,0.432031,
2010-04-28, 01:07:04,VALID,919.483,VALID,0,VALID,96.7793,VALID,0,VALID,20.6585,VALID,141,VALID,0.0894531,
2010-04-28, 01:08:04,VALID,919.493,VALID,0,VALID,96.7411,VALID,0,VALID,20.639,VALID,141,VALID,0.216797,
2010-04-28, 01:09:04,VALID,919.498,VALID,0,VALID,96.6725,VALID,0,VALID,20.639,VALID,141,VALID,0.290234,
2010-04-28, 01:10:04,VALID,919.524,VALID,0,VALID,96.6115,VALID,0,VALID,20.6194,VALID,141,VALID,0.316016,
2010-04-28, 01:11:04,VALID,919.507,VALID,0,VALID,96.4972,VALID,0,VALID,20.5804,VALID,141,VALID,0.346484,
2010-04-28, 01:12:04,VALID,919.487,VALID,0,VALID,96.421,VALID,0,VALID,20.543,VALID,141,VALID,0.275781,
2010-04-28, 01:13:04,VALID,919.476,VALID,0,VALID,96.3829,VALID,0,VALID,20.5219,VALID,141,VALID,0.351953,
2010-04-28, 01:14:04,VALID,919.445,VALID,0,VALID,96.3752,VALID,0,VALID,20.5024,VALID,141,VALID,0.325781,
2010-04-28, 01:15:04,VALID,919.424,VALID,0,VALID,96.4133,VALID,0,VALID,20.4829,VALID,141,VALID,0.307031,
2010-04-28, 01:16:04,VALID,919.4,VALID,0,VALID,96.4133,VALID,0,VALID,20.4845,VALID,141,VALID,0.296875,
2010-04-28, 01:17:04,VALID,919.375,VALID,0,VALID,96.421,VALID,0,VALID,20.4439,VALID,141,VALID,0.0183594,
2010-04-28, 01:18:04,VALID,919.385,VALID,0,VALID,96.3371,VALID,0,VALID,20.4244,VALID,141,VALID,0.349219,
2010-04-28, 01:19:04,VALID,919.373,VALID,0,VALID,96.3219,VALID,0,VALID,20.4259,VALID,141,VALID,0.370703,
2010-04-28, 01:20:04,VALID,919.329,VALID,0,VALID,96.36,VALID,0,VALID,20.3869,VALID,141,VALID,0.403906,
2010-04-28, 01:21:04,VALID,919.29,VALID,0,VALID,96.4591,VALID,0,VALID,20.4064,VALID,141,VALID,0.617188,
2010-04-28, 01:22:04,VALID,919.274,VALID,0,VALID,96.5658,VALID,0,VALID,20.3854,VALID,141,VALID,0.810547,
2010-04-28, 01:23:04,VALID,919.233,VALID,0,VALID,96.6344,VALID,0,VALID,20.3869,VALID,141,VALID,0.938281,
2010-04-28, 01:24:04,VALID,919.223,VALID,0,VALID,96.6649,VALID,0,VALID,20.3464,VALID,141,VALID,1.07539,
2010-04-28, 01:25:04,VALID,919.203,VALID,0,VALID,96.6497,VALID,0,VALID,20.3284,VALID,141,VALID,0.958203,
2010-04-28, 01:26:04,VALID,919.232,VALID,0,VALID,96.7107,VALID,0,VALID,20.2879,VALID,141,VALID,0.81875,
2010-04-28, 01:27:04,VALID,919.211,VALID,0,VALID,96.7945,VALID,0,VALID,20.3074,VALID,141,VALID,0.708203,
2010-04-28, 01:28:04,VALID,919.231,VALID,0,VALID,96.8555,VALID,0,VALID,20.2879,VALID,141,VALID,0.721875,
2010-04-28, 01:29:04,VALID,919.202,VALID,0,VALID,96.886,VALID,0,VALID,20.2684,VALID,141,VALID,0.772266,
2010-04-28, 01:30:04,VALID,919.199,VALID,0,VALID,96.8021,VALID,0,VALID,20.2293,VALID,141,VALID,0.671484,
2010-04-28, 01:31:04,VALID,919.152,VALID,0,VALID,96.7183,VALID,0,VALID,20.1318,VALID,141,VALID,0.798828,
2010-04-28, 01:32:04,VALID,919.152,VALID,0,VALID,96.7793,VALID,0,VALID,20.0928,VALID,141,VALID,0.95,
2010-04-28, 01:33:04,VALID,919.165,VALID,0,VALID,96.8555,VALID,0,VALID,20.1139,VALID,141,VALID,0.943359,
2010-04-28, 01:34:04,VALID,919.126,VALID,0,VALID,96.8936,VALID,0,VALID,20.0733,VALID,141,VALID,0.9625,
2010-04-28, 01:35:04,VALID,919.089,VALID,0,VALID,96.9851,VALID,0,VALID,20.1139,VALID,141,VALID,0.847656,
2010-04-28, 01:36:04,VALID,919.053,VALID,0,VALID,97.0766,VALID,0,VALID,20.1123,VALID,141,VALID,0.95625,
2010-04-28, 01:37:04,VALID,919.029,VALID,0,VALID,97.0918,VALID,0,VALID,20.1724,VALID,141,VALID,0.803516,
2010-04-28, 01:38:04,VALID,919.029,VALID,0,VALID,97.1147,VALID,0,VALID,20.2114,VALID,141,VALID,0.671484,
2010-04-28, 01:39:04,VALID,919.019,VALID,0,VALID,97.1299,VALID,0,VALID,20.2098,VALID,141,VALID,0.685938,
2010-04-28, 01:40:04,VALID,918.998,VALID,0,VALID,97.1376,VALID,0,VALID,20.1903,VALID,141,VALID,0.610156,
2010-04-28, 01:41:04,VALID,919.02,VALID,0,VALID,97.1299,VALID,0,VALID,20.1903,VALID,141,VALID,0.623438,
2010-04-28, 01:42:04,VALID,919,VALID,0,VALID,97.1223,VALID,0,VALID,20.1919,VALID,141,VALID,0.557422,
2010-04-28, 01:43:04,VALID,919.008,VALID,0,VALID,97.1376,VALID,0,VALID,20.1708,VALID,141,VALID,0.331641,
2010-04-28, 01:44:04,VALID,919.002,VALID,0,VALID,97.1299,VALID,0,VALID,20.1513,VALID,141,VALID,0.0128906,
2010-04-28, 01:45:04,VALID,919.002,VALID,0,VALID,97.1528,VALID,0,VALID,20.1498,VALID,141,VALID,0.278125,
2010-04-28, 01:46:04,VALID,918.987,VALID,0,VALID,97.1299,VALID,0.107441,VALID,20.1318,VALID,141,VALID,0.123047,
2010-04-28, 01:47:04,VALID,918.989,VALID,0,VALID,97.1376,VALID,0,VALID,20.1108,VALID,141,VALID,0.164453,
2010-04-28, 01:48:04,VALID,918.992,VALID,0,VALID,97.1681,VALID,0,VALID,20.1108,VALID,141,VALID,0.255078,
2010-04-28, 01:49:04,VALID,918.973,VALID,0,VALID,97.1528,VALID,0,VALID,20.0913,VALID,141,VALID,0,
2010-04-28, 01:50:04,VALID,918.924,VALID,0,VALID,97.1681,VALID,0.107441,VALID,20.0913,VALID,141,VALID,0,
2010-04-28, 01:51:04,VALID,918.964,VALID,0,VALID,97.1681,VALID,0.107441,VALID,20.0718,VALID,141,VALID,0,
2010-04-28, 01:52:04,VALID,918.95,VALID,0,VALID,97.1909,VALID,0.107441,VALID,20.0718,VALID,141,VALID,0,
2010-04-28, 01:53:04,VALID,918.934,VALID,0,VALID,97.1833,VALID,0,VALID,20.0523,VALID,141,VALID,0,
2010-04-28, 01:54:04,VALID,918.953,VALID,0,VALID,97.1833,VALID,0,VALID,20.0538,VALID,141,VALID,0,
2010-04-28, 01:55:04,VALID,918.974,VALID,0,VALID,97.1757,VALID,0.107441,VALID,20.0538,VALID,141,VALID,0,
2010-04-28, 01:56:04,VALID,918.969,VALID,0,VALID,97.1909,VALID,0,VALID,20.0343,VALID,141,VALID,0.382422,
2010-04-28, 01:57:04,VALID,918.942,VALID,0,VALID,97.1909,VALID,0,VALID,20.0133,VALID,141,VALID,0.214062,
2010-04-28, 01:58:04,VALID,918.936,VALID,0,VALID,97.1909,VALID,0.107441,VALID,20.0133,VALID,141,VALID,0.209375,
2010-04-28, 01:59:04,VALID,918.951,VALID,0,VALID,97.2138,VALID,0.107441,VALID,20.0328,VALID,141,VALID,0.313672,
2010-04-28, 02:00:04,VALID,918.92,VALID,0,VALID,97.229,VALID,0,VALID,20.0538,VALID,141,VALID,0.198437,
2010-04-28, 02:01:04,VALID,918.922,VALID,0,VALID,97.229,VALID,0,VALID,20.0538,VALID,141,VALID,0,
2010-04-28, 02:02:04,VALID,918.914,VALID,0,VALID,97.229,VALID,0,VALID,20.0133,VALID,141,VALID,0.6875,
2010-04-28, 02:03:04,VALID,918.91,VALID,0,VALID,97.2443,VALID,0,VALID,19.9743,VALID,141,VALID,0.475391,
2010-04-28, 02:04:04,VALID,918.849,VALID,0,VALID,97.2214,VALID,0,VALID,19.9368,VALID,141,VALID,0.553906,
2010-04-28, 02:05:04,VALID,918.889,VALID,0,VALID,97.229,VALID,0.107441,VALID,19.9368,VALID,141,VALID,0.522656,
2010-04-28, 02:06:04,VALID,918.847,VALID,0,VALID,97.2367,VALID,0.107441,VALID,19.9758,VALID,141,VALID,0.723047,
2010-04-28, 02:07:04,VALID,918.848,VALID,0,VALID,97.2824,VALID,0.107441,VALID,19.9758,VALID,141,VALID,0.688672,
2010-04-28, 02:08:04,VALID,918.838,VALID,0,VALID,97.29,VALID,0.107441,VALID,19.9758,VALID,141,VALID,0.747656,
2010-04-28, 02:09:04,VALID,918.826,VALID,0,VALID,97.2748,VALID,0.107441,VALID,19.9953,VALID,141,VALID,0.767187,
2010-04-28, 02:10:04,VALID,918.827,VALID,0,VALID,97.3053,VALID,0.107441,VALID,19.9938,VALID,141,VALID,0.945703,
2010-04-28, 02:11:04,VALID,918.854,VALID,0,VALID,97.29,VALID,0.107441,VALID,20.0148,VALID,141,VALID,0.580859,
2010-04-28, 02:12:04,VALID,918.85,VALID,0,VALID,97.3129,VALID,0,VALID,20.0343,VALID,141,VALID,0.860156,
2010-04-28, 02:13:04,VALID,918.816,VALID,0,VALID,97.3281,VALID,0,VALID,20.0343,VALID,141,VALID,0.866406,
2010-04-28, 02:14:04,VALID,918.8,VALID,0,VALID,97.3358,VALID,0,VALID,20.0343,VALID,141,VALID,0.65,
2010-04-28, 02:15:04,VALID,918.771,VALID,0,VALID,97.3586,VALID,0,VALID,20.0148,VALID,141,VALID,0.700391,
2010-04-28, 02:16:04,VALID,918.78,VALID,0,VALID,97.3358,VALID,0,VALID,20.0163,VALID,141,VALID,0.711328,
2010-04-28, 02:17:04,VALID,918.77,VALID,0,VALID,97.3358,VALID,0,VALID,19.9953,VALID,141,VALID,0.780078,
2010-04-28, 02:18:04,VALID,918.77,VALID,0,VALID,97.3586,VALID,0,VALID,19.9953,VALID,141,VALID,0.703125,
2010-04-28, 02:19:04,VALID,918.744,VALID,0,VALID,97.3434,VALID,0,VALID,19.9953,VALID,141,VALID,0.648438,
2010-04-28, 02:20:04,VALID,918.744,VALID,0,VALID,97.3586,VALID,0,VALID,19.9758,VALID,141,VALID,0.734766,
2010-04-28, 02:21:04,VALID,918.751,VALID,0,VALID,97.3663,VALID,0.107441,VALID,19.9758,VALID,141,VALID,0.546875,
2010-04-28, 02:22:04,VALID,918.712,VALID,0,VALID,97.3815,VALID,0,VALID,19.9353,VALID,141,VALID,0.558203,
2010-04-28, 02:23:04,VALID,918.737,VALID,0,VALID,97.3815,VALID,0.107441,VALID,19.9563,VALID,141,VALID,0.619531,
2010-04-28, 02:24:04,VALID,918.722,VALID,0,VALID,97.3815,VALID,0,VALID,19.9368,VALID,141,VALID,0.651953,
2010-04-28, 02:25:04,VALID,918.72,VALID,0,VALID,97.3891,VALID,0.107441,VALID,19.9548,VALID,141,VALID,0.655469,
2010-04-28, 02:26:04,VALID,918.717,VALID,0,VALID,97.3891,VALID,0,VALID,19.9563,VALID,141,VALID,0.722656,
2010-04-28, 02:27:04,VALID,918.731,VALID,0,VALID,97.3968,VALID,0,VALID,19.9953,VALID,141,VALID,0.735156,
2010-04-28, 02:28:04,VALID,918.717,VALID,0,VALID,97.4044,VALID,0,VALID,20.0148,VALID,141,VALID,0.766797,
2010-04-28, 02:29:04,VALID,918.706,VALID,0,VALID,97.4196,VALID,0.107441,VALID,19.9938,VALID,141,VALID,0.551953,
2010-04-28, 02:30:04,VALID,918.71,VALID,0,VALID,97.4349,VALID,0,VALID,20.0328,VALID,141,VALID,0.582812,
2010-04-28, 02:31:04,VALID,918.685,VALID,0,VALID,97.4501,VALID,0.107441,VALID,20.0343,VALID,141,VALID,0.578906,
2010-04-28, 02:32:04,VALID,918.681,VALID,0,VALID,97.4349,VALID,0.107441,VALID,20.0343,VALID,141,VALID,0.501562,
2010-04-28, 02:33:04,VALID,918.708,VALID,0,VALID,97.4501,VALID,0.107441,VALID,20.0133,VALID,141,VALID,0.672656,
2010-04-28, 02:34:04,VALID,918.705,VALID,0,VALID,97.4349,VALID,0,VALID,20.0328,VALID,141,VALID,0.796484,
2010-04-28, 02:35:04,VALID,918.679,VALID,0,VALID,97.4425,VALID,0.107441,VALID,20.0523,VALID,141,VALID,0.666797,
2010-04-28, 02:36:04,VALID,918.699,VALID,0,VALID,97.4577,VALID,0,VALID,20.0733,VALID,141,VALID,0.854688,
2010-04-28, 02:37:04,VALID,918.682,VALID,0,VALID,97.4577,VALID,0.107441,VALID,20.0928,VALID,141,VALID,0.608984,
2010-04-28, 02:38:04,VALID,918.678,VALID,0,VALID,97.4577,VALID,0,VALID,20.0718,VALID,141,VALID,0.649609,
2010-04-28, 02:39:04,VALID,918.663,VALID,0,VALID,97.473,VALID,0,VALID,20.0733,VALID,141,VALID,0.317578,
2010-04-28, 02:40:04,VALID,918.67,VALID,0,VALID,97.4577,VALID,0,VALID,20.0928,VALID,141,VALID,0.544531,
2010-04-28, 02:41:04,VALID,918.646,VALID,0,VALID,97.473,VALID,0,VALID,20.0733,VALID,141,VALID,0.505078,
2010-04-28, 02:42:04,VALID,918.629,VALID,0,VALID,97.4577,VALID,0,VALID,20.0733,VALID,141,VALID,0.402734,
2010-04-28, 02:43:04,VALID,918.617,VALID,0,VALID,97.4654,VALID,0,VALID,20.0538,VALID,141,VALID,0.652344,
2010-04-28, 02:44:04,VALID,918.604,VALID,0,VALID,97.4654,VALID,0.107441,VALID,20.0133,VALID,141,VALID,0.665234,
2010-04-28, 02:45:04,VALID,918.636,VALID,0,VALID,97.473,VALID,0,VALID,20.0148,VALID,141,VALID,0.498047,
2010-04-28, 02:46:04,VALID,918.637,VALID,0,VALID,97.473,VALID,0.107441,VALID,20.0148,VALID,141,VALID,0.483984,
2010-04-28, 02:47:04,VALID,918.617,VALID,0,VALID,97.4654,VALID,0.107441,VALID,20.0148,VALID,141,VALID,0.760156,
2010-04-28, 02:48:04,VALID,918.638,VALID,0,VALID,97.473,VALID,0,VALID,20.0148,VALID,141,VALID,0.708594,
2010-04-28, 02:49:04,VALID,918.6,VALID,0,VALID,97.4882,VALID,0,VALID,20.0148,VALID,141,VALID,0.488672,
2010-04-28, 02:50:04,VALID,918.625,VALID,0,VALID,97.4959,VALID,0.107441,VALID,19.9758,VALID,141,VALID,0.366797,
2010-04-28, 02:51:04,VALID,918.6,VALID,0,VALID,97.5035,VALID,0.107441,VALID,19.9953,VALID,141,VALID,0.557031,
2010-04-28, 02:52:04,VALID,918.627,VALID,0,VALID,97.4882,VALID,0,VALID,19.9563,VALID,141,VALID,0.565234,
2010-04-28, 02:53:04,VALID,918.59,VALID,0,VALID,97.5035,VALID,0,VALID,19.9563,VALID,141,VALID,0.673047,
2010-04-28, 02:54:04,VALID,918.597,VALID,0,VALID,97.5264,VALID,0,VALID,19.9368,VALID,141,VALID,0.639453,
2010-04-28, 02:55:04,VALID,918.636,VALID,0,VALID,97.4806,VALID,0,VALID,19.9368,VALID,141,VALID,0.612891,
2010-04-28, 02:56:04,VALID,918.618,VALID,0,VALID,97.4882,VALID,0,VALID,19.9173,VALID,141,VALID,0.816406,
2010-04-28, 02:57:04,VALID,918.63,VALID,0,VALID,97.5035,VALID,0,VALID,19.8783,VALID,141,VALID,0.780469,
2010-04-28, 02:58:04,VALID,918.606,VALID,0,VALID,97.5035,VALID,0,VALID,19.8588,VALID,141,VALID,0.48125,
2010-04-28, 02:59:04,VALID,918.631,VALID,0,VALID,97.5264,VALID,0.107441,VALID,19.8783,VALID,141,VALID,0.391406,
2010-04-28, 03:00:04,VALID,918.62,VALID,0,VALID,97.5187,VALID,0,VALID,19.8783,VALID,141,VALID,0,
2010-04-28, 03:01:04,VALID,918.616,VALID,0,VALID,97.534,VALID,0,VALID,19.8783,VALID,141,VALID,0,
2010-04-28, 03:02:04,VALID,918.614,VALID,0,VALID,97.5111,VALID,0.107441,VALID,19.8978,VALID,141,VALID,0.0167969,
2010-04-28, 03:03:04,VALID,918.638,VALID,0,VALID,97.5187,VALID,0,VALID,19.9173,VALID,141,VALID,0.175,
2010-04-28, 03:04:04,VALID,918.642,VALID,0,VALID,97.534,VALID,0,VALID,19.8978,VALID,141,VALID,0.448438,
2010-04-28, 03:05:04,VALID,918.621,VALID,0,VALID,97.534,VALID,0.107441,VALID,19.8573,VALID,141,VALID,0.489453,
2010-04-28, 03:06:04,VALID,918.618,VALID,0,VALID,97.5416,VALID,0,VALID,19.8588,VALID,141,VALID,0.535547,
2010-04-28, 03:07:04,VALID,918.632,VALID,0,VALID,97.534,VALID,0.107441,VALID,19.8588,VALID,141,VALID,0.461328,
2010-04-28, 03:08:04,VALID,918.621,VALID,0,VALID,97.5264,VALID,0,VALID,19.8573,VALID,141,VALID,0.525391,
2010-04-28, 03:09:04,VALID,918.658,VALID,0,VALID,97.5569,VALID,0.107441,VALID,19.8783,VALID,141,VALID,0.465625,
2010-04-28, 03:10:04,VALID,918.608,VALID,0,VALID,97.534,VALID,0,VALID,19.9173,VALID,141,VALID,0.140625,
2010-04-28, 03:11:04,VALID,918.638,VALID,0,VALID,97.5492,VALID,0,VALID,19.9368,VALID,141,VALID,0.207422,
2010-04-28, 03:12:04,VALID,918.653,VALID,0,VALID,97.5645,VALID,0,VALID,19.9368,VALID,141,VALID,0.329688,
2010-04-28, 03:13:04,VALID,918.636,VALID,0,VALID,97.5569,VALID,0,VALID,19.9368,VALID,141,VALID,0.0886719,
2010-04-28, 03:14:04,VALID,918.658,VALID,0,VALID,97.5416,VALID,0,VALID,19.9563,VALID,141,VALID,0,
2010-04-28, 03:15:04,VALID,918.664,VALID,0,VALID,97.5645,VALID,0,VALID,19.9563,VALID,141,VALID,0,
2010-04-28, 03:16:04,VALID,918.646,VALID,0,VALID,97.5569,VALID,0,VALID,19.9758,VALID,141,VALID,0,
2010-04-28, 03:17:04,VALID,918.635,VALID,0,VALID,97.5721,VALID,0,VALID,19.9743,VALID,141,VALID,0,
2010-04-28, 03:18:04,VALID,918.615,VALID,0,VALID,97.5645,VALID,0,VALID,19.9953,VALID,141,VALID,0,
2010-04-28, 03:19:04,VALID,918.656,VALID,0,VALID,97.5721,VALID,0,VALID,20.0148,VALID,141,VALID,0,
2010-04-28, 03:20:04,VALID,918.645,VALID,0,VALID,97.5645,VALID,0.107441,VALID,19.9938,VALID,141,VALID,0,
2010-04-28, 03:21:04,VALID,918.641,VALID,0,VALID,97.5569,VALID,0,VALID,19.9953,VALID,141,VALID,0.360938,
2010-04-28, 03:22:04,VALID,918.675,VALID,0,VALID,97.5645,VALID,0.107441,VALID,19.9773,VALID,141,VALID,0.589844,
2010-04-28, 03:23:04,VALID,918.632,VALID,0,VALID,97.5797,VALID,0,VALID,19.9368,VALID,141,VALID,0.764063,
2010-04-28, 03:24:04,VALID,918.642,VALID,0,VALID,97.5569,VALID,0,VALID,19.9173,VALID,141,VALID,0.965625,
2010-04-28, 03:25:04,VALID,918.663,VALID,0,VALID,97.5416,VALID,0.107441,VALID,19.9368,VALID,141,VALID,0.596094,
2010-04-28, 03:26:04,VALID,918.664,VALID,0,VALID,97.5569,VALID,0.107441,VALID,19.9173,VALID,141,VALID,0.709375,
2010-04-28, 03:27:04,VALID,918.671,VALID,0,VALID,97.5721,VALID,0,VALID,19.9173,VALID,141,VALID,0.926953,
2010-04-28, 03:28:04,VALID,918.649,VALID,0,VALID,97.5721,VALID,0,VALID,19.8768,VALID,141,VALID,0.542969,
2010-04-28, 03:29:04,VALID,918.634,VALID,0,VALID,97.5645,VALID,0,VALID,19.8963,VALID,141,VALID,0.855469,
2010-04-28, 03:30:04,VALID,918.628,VALID,0,VALID,97.5797,VALID,0,VALID,19.8963,VALID,141,VALID,0.85,
2010-04-28, 03:31:04,VALID,918.63,VALID,0,VALID,97.5721,VALID,0,VALID,19.9173,VALID,141,VALID,0.637891,
2010-04-28, 03:32:04,VALID,918.635,VALID,0,VALID,97.5797,VALID,0.107441,VALID,19.9173,VALID,141,VALID,0.317578,
2010-04-28, 03:33:04,VALID,918.622,VALID,0,VALID,97.5873,VALID,0,VALID,19.8963,VALID,141,VALID,0.625391,
2010-04-28, 03:34:04,VALID,918.607,VALID,0,VALID,97.5873,VALID,0,VALID,19.9158,VALID,141,VALID,0.480859,
2010-04-28, 03:35:04,VALID,918.596,VALID,0,VALID,97.5797,VALID,0,VALID,19.9368,VALID,141,VALID,0.0347656,
2010-04-28, 03:36:04,VALID,918.597,VALID,0,VALID,97.595,VALID,0.107441,VALID,19.9563,VALID,141,VALID,0.558594,
2010-04-28, 03:37:04,VALID,918.56,VALID,0,VALID,97.595,VALID,0,VALID,19.9368,VALID,141,VALID,0.260156,
2010-04-28, 03:38:04,VALID,918.547,VALID,0,VALID,97.5873,VALID,0,VALID,19.9173,VALID,141,VALID,0,
2010-04-28, 03:39:04,VALID,918.537,VALID,0,VALID,97.595,VALID,0,VALID,19.9173,VALID,141,VALID,0.227344,
2010-04-28, 03:40:04,VALID,918.547,VALID,0,VALID,97.6102,VALID,0,VALID,19.8963,VALID,141,VALID,0.179297,
2010-04-28, 03:41:04,VALID,918.516,VALID,0,VALID,97.6102,VALID,0,VALID,19.9173,VALID,141,VALID,0.0214844,